Location: Hoyos del Collado
(40.3594°N, 5.2003°W)
Time: 12:35:24
(UTC+00:00)

Atlas Centaur 2 - Pass Details

Date: 18 April 2024
Orbit: 458 x 1278 km, 30.4° (Epoch: 21 May)

Event Time Altitude Azimuth Distance (km) Brightness Sun altitude
Rises 19:25:39 0° 227° (SW) 3,579 5.9 -4.9°
Reaches altitude 10° 19:29:16 10° 210° (SSW) 2,457 4.8 -5.5°
Maximum altitude 19:33:08 18° 168° (SSE) 1,751 3.6 -6.2°
Drops below altitude 10° 19:36:29 10° 125° (SE) 2,088 3.6 -6.8°
Enters shadow 19:37:01 - 120° (ESE) 2,212 3.7 -6.9°
